Regional Weather Roundup
Issued by NWS

Home | Current Version | Previous Version | Text Only | Print | Product List | Glossary On
Versions: 1 2 3 4 5 6 7 8 9 10 11 12 13 14 15 16 17 18 19 20 21 22 23 24 25 26 27 28 29 30 31 32 33 34 35 36 37 38 39 40 41 42 43 44 45 46 47 48 49 50
752
ASCA42 TJSJ 261010
RWRPR
PUERTO RICO/U.S. VIRGIN ISLANDS HOURLY WEATHER ROUNDUP
NATIONAL WEATHER SERVICE SAN JUAN PR
600 AM AST WED JUL 26 2017

PRZ001>002-007>008-010-261100-
PUERTO RICO

CITY           SKY/WX    TMP DP  RH WIND       PRES   REMARKS
SAN JUAN LMM   PTCLDY    79  75  89 CALM      29.99R
CEIBA          CLOUDY    79  77  94 CALM      30.01R
$$

VIZ001>002-261100-
U.S. VIRGIN ISLANDS

CITY           SKY/WX    TMP DP  RH WIND       PRES   REMARKS
CHARLOTTE AMA  CLEAR     79  77  94 NE5         N/A
CHRISTIANSTED  PTCLDY    79  75  89 NE5       29.99S
$$

HOURLY WEATHER ROUNDUP FOR THE NEWS MEDIA

CITY           SKY/WX    TMP DP  RH WIND       PRES   REMARKS
NEW YORK       PTCLDY    64  60  87 NE7       30.24R
NEWARK         CLOUDY    67  57  70 N6        30.24R
CHICAGO        MOCLDY    66  59  78 S8        30.10F
HARTFORD       CLEAR     51  50  96 CALM      30.21R FOG
BOSTON         CLEAR     60  56  86 NW8       30.21S
DALLAS         CLEAR     82  71  69 S14       30.03F
PHILADELPHIA   CLOUDY    68  62  81 NE7       30.22R
LOS ANGELES    CLEAR     68  63  84 W8        30.00S
WASHINGTON DC  PTCLDY    63  60  90 CALM      30.21R



USA.gov is the U.S. government's official web portal to all federal, state and local government web resources and services.